TimeEST,TemperatureF,Dew PointF,Humidity,Sea Level PressureIn,VisibilityMPH,Wind Direction,Wind SpeedMPH,Gust SpeedMPH,PrecipitationIn,Events,Conditions,WindDirDegrees,DateUTC
12:34 AM,21.2,21.2,100,29.96,3.0,NNW,3.5,-,0.00,Snow,Light Snow,330,2014-02-06 05:34:00
12:56 AM,21.9,19.9,92,30.03,4.0,NNW,6.9,-,0.00,Snow,Light Snow,330,2014-02-06 05:56:00
1:56 AM,19.9,18.0,92,30.05,10.0,Calm,Calm,-,0.00,,Overcast,0,2014-02-06 06:56:00
2:21 AM,19.4,19.4,100,30.01,10.0,Calm,Calm,-,N/A,,Overcast,0,2014-02-06 07:21:00
2:56 AM,21.0,19.0,92,30.08,10.0,NNW,3.5,-,N/A,,Overcast,340,2014-02-06 07:56:00
3:56 AM,19.0,16.0,88,30.12,10.0,Calm,Calm,-,N/A,,Mostly Cloudy,0,2014-02-06 08:56:00
4:06 AM,17.6,15.8,93,30.07,10.0,Calm,Calm,-,N/A,,Scattered Clouds,0,2014-02-06 09:06:00
4:35 AM,17.6,15.8,93,30.10,10.0,NW,5.8,-,N/A,,Mostly Cloudy,310,2014-02-06 09:35:00
4:56 AM,19.0,15.1,85,30.16,10.0,NNW,9.2,-,N/A,,Scattered Clouds,330,2014-02-06 09:56:00
5:56 AM,17.1,12.0,81,30.18,10.0,NNW,6.9,-,N/A,,Clear,330,2014-02-06 10:56:00
6:56 AM,15.1,10.0,80,30.23,9.0,NW,6.9,-,N/A,,Clear,320,2014-02-06 11:56:00
7:56 AM,15.1,9.0,77,30.27,10.0,NW,4.6,-,N/A,,Clear,310,2014-02-06 12:56:00
8:56 AM,18.0,7.0,62,30.28,10.0,NNW,11.5,-,N/A,,Scattered Clouds,330,2014-02-06 13:56:00
9:56 AM,18.0,7.0,62,30.30,10.0,North,10.4,-,N/A,,Scattered Clouds,360,2014-02-06 14:56:00
10:56 AM,19.0,5.0,54,30.31,10.0,WNW,8.1,-,N/A,,Clear,290,2014-02-06 15:56:00
11:56 AM,19.9,6.1,55,30.29,10.0,West,6.9,-,N/A,,Mostly Cloudy,280,2014-02-06 16:56:00
12:56 PM,23.0,7.0,50,30.27,10.0,WNW,4.6,-,N/A,,Clear,300,2014-02-06 17:56:00
1:56 PM,23.0,6.1,48,30.25,10.0,SSW,3.5,-,N/A,,Clear,200,2014-02-06 18:56:00
2:56 PM,24.1,5.0,44,30.26,10.0,WSW,3.5,-,N/A,,Clear,250,2014-02-06 19:56:00
3:56 PM,24.1,3.9,42,30.26,10.0,West,3.5,-,N/A,,Partly Cloudy,260,2014-02-06 20:56:00
4:56 PM,23.0,7.0,50,30.26,10.0,SSW,3.5,-,N/A,,Clear,200,2014-02-06 21:56:00
5:56 PM,17.1,8.1,68,30.27,10.0,Calm,Calm,-,N/A,,Clear,0,2014-02-06 22:56:00
6:56 PM,14.0,9.0,80,30.26,10.0,Calm,Calm,-,N/A,,Clear,0,2014-02-06 23:56:00
7:56 PM,10.0,7.0,87,30.26,10.0,Calm,Calm,-,N/A,,Clear,0,2014-02-07 00:56:00
8:56 PM,8.1,7.0,95,30.25,10.0,Calm,Calm,-,N/A,,Clear,0,2014-02-07 01:56:00
9:56 PM,12.9,10.9,92,30.26,10.0,WSW,5.8,-,N/A,,Clear,240,2014-02-07 02:56:00
10:56 PM,8.1,5.0,87,30.25,10.0,WSW,3.5,-,N/A,,Clear,240,2014-02-07 03:56:00
11:56 PM,15.1,10.9,84,30.25,10.0,SW,5.8,-,N/A,,Clear,230,2014-02-07 04:56:00